Location: Hylvaty SDH
(49.9612°N, 16.4057°E)
Time: 04:19:15
(UTC+01:00)

Tiros 1 despin weight - Pass Details

Date: 22 January 2021
Orbit: 593 x 642 km, 48.2° (Epoch: 24 February)

Event Time Altitude Azimuth Distance (km) Brightness Sun altitude
Rises 19:05:22 0° 278° (W) 2,853 ? -24.2°
Reaches altitude 10° 19:07:42 10° 273° (W) 1,942 ? -24.6°
Enters shadow 19:11:55 53° 203° (SSW) 738 ? -25.3°
